GW0684 Weather Reports


time (UTC)temp
C
wind
direction
speed
KPH
gust
KPH
rain 1hr
cm
rain 24hr
cm
rain mn
cm
humidity
%
barometer
mb
20260507081614 8 284 1.6 3.2 0.10 0.91 0.10 99
20260507080554 8 287 1.6 3.2 0.08 0.91 0.08 99
20260507075614 8 298 0.0 1.6 0.05 0.89 0.05 99
20260507074554 8 313 1.6 3.2 0.00 0.84 0.00 99
20260507073555 8 286 1.6 3.2 0.00 0.84 0.00 99
20260507072615 8 323 0.0 3.2 0.00 0.84 0.00 99
20260507071555 8 281 1.6 3.2 0.00 0.84 0.00 99
20260507070555 8 308 1.6 3.2 0.00 0.84 0.00 99
20260507065615 8 292 1.6 3.2 0.00 0.84 0.00 99
20260507064555 8 304 1.6 3.2 0.00 0.84 0.00 99
20260507063556 8 304 0.0 1.6 0.00 0.84 0.00 99
20260507062556 9 330 1.6 3.2 0.00 0.84 0.00 99
20260507061556 9 309 0.0 3.2 0.00 0.84 0.00 99
20260507060617 9 333 1.6 3.2 0.00 0.84 0.00 99
20260507055557 9 10 0.0 3.2 0.00 0.84 0.00 99
20260507054557 9 246 0.0 1.6 0.00 0.84 0.00 99
20260507053657 10 323 1.6 1.6 0.00 0.84 0.00 99
20260507052557 10 292 0.0 3.2 0.00 0.84 0.00 99
20260507051637 10 272 1.6 1.6 0.00 0.84 0.00 99
20260507050618 10 345 0.0 1.6 0.00 0.84 0.00 99
20260507045558 10 337 0.0 1.6 0.00 0.84 0.00 99
20260507044558 10 322 1.6 1.6 0.00 0.84 0.00 99
20260507043557 10 290 1.6 1.6 0.00 0.84 0.00 99
20260507042618 10 284 1.6 3.2 0.00 0.84 0.00 99
20260507041558 10 277 1.6 3.2 0.00 0.84 0.00 99
20260507040558 11 262 1.6 3.2 0.00 0.84 0.00 99
20260507035559 11 268 1.6 3.2 0.00 0.84 0.00 99
20260507034558 11 297 1.6 3.2 0.00 0.84 0.00 99
20260507033559 11 282 3.2 4.8 0.00 0.84 0.00 99
20260507032559 12 289 3.2 4.8 0.00 0.84 0.00 99
20260507031620 13 328 1.6 4.8 0.00 0.84 0.00 99
20260507030601 13 274 1.6 3.2 0.00 0.84 0.00 99
20260507025600 14 289 3.2 4.8 0.00 0.84 0.00 99
20260507024600 14 275 1.6 3.2 0.00 0.84 0.00 99
20260507023600 14 260 1.6 4.8 0.00 0.84 0.00 99
20260507022600 14 222 1.6 3.2 0.00 0.84 0.00 99
20260507021601 14 251 1.6 4.8 0.00 0.84 0.00 99
20260507020600 14 267 1.6 3.2 0.00 0.84 0.00 99
20260507015619 15 274 1.6 4.8 0.00 0.84 0.00 99
20260507014600 15 326 1.6 4.8 0.00 0.84 0.00 99
20260507013601 15 80 3.2 11.3 0.00 0.84 0.00 99
20260507012601 14 302 1.6 3.2 0.00 0.84 0.00 99
20260507011621 15 112 1.6 4.8 0.00 0.84 0.00 99
20260507010602 15 186 1.6 6.4 0.00 0.84 0.00 99
20260507005601 14 83 3.2 11.3 0.00 0.84 0.00 99
20260507004600 14 174 1.6 4.8 0.00 0.84 0.00 99
20260507003600 15 122 1.6 6.4 0.00 0.84 0.00 99
20260507002601 15 147 3.2 8.0 0.00 0.84 0.00 99
20260507001621 15 241 3.2 9.7 0.00 0.84 0.00 99
20260507000601 15 109 3.2 6.4 0.03 0.84 0.00 99
20260506235602 15 299 3.2 9.7 0.05 0.84 0.84 99
20260506234601 15 60 3.2 4.8 0.05 0.84 0.84 99
20260506233621 15 150 3.2 8.0 0.05 0.84 0.84 99
20260506232601 15 11 1.6 4.8 0.05 0.84 0.84 99
20260506231602 15 152 3.2 6.4 0.05 0.81 0.81 99
20260506230601 15 165 3.2 11.3 0.05 0.81 0.81 99
20260506225603 15 139 1.6 6.4 0.00 0.76 0.76 99
20260506224604 15 17 1.6 8.0 0.00 0.76 0.76 99
20260506223602 15 189 3.2 6.4 0.03 0.76 0.76 99
20260506222602 15 83 3.2 8.0 0.05 0.76 0.76 99
20260506221602 15 231 1.6 4.8 0.08 0.76 0.76 99
20260506220602 15 125 4.8 8.0 0.10 0.76 0.76 99
20260506215603 15 273 1.6 4.8 0.13 0.76 0.76 99
20260506214603 15 97 1.6 4.8 0.15 0.76 0.76 99
20260506213603 15 150 3.2 6.4 0.15 0.74 0.74 99
20260506212604 15 94 4.8 9.7 0.18 0.74 0.74 99
20260506211603 15 133 4.8 8.0 0.18 0.69 0.69 99
20260506210603 15 122 3.2 4.8 0.18 0.66 0.66 99
20260506205623 15 238 3.2 8.0 0.18 0.64 0.64 99
20260506204603 15 105 3.2 8.0 0.15 0.61 0.61 100
20260506203603 16 139 0.0 4.8 0.13 0.58 0.58 99
20260506202604 16 143 1.6 4.8 0.10 0.53 0.53 99
20260506201604 16 122 3.2 8.0 0.08 0.51 0.51 98
20260506200604 16 27 3.2 8.0 0.05 0.48 0.48 98
20260506195604 16 135 1.6 8.0 0.08 0.46 0.46 99
20260506194605 16 188 1.6 3.2 0.10 0.46 0.46 100
20260506193604 16 55 1.6 4.8 0.13 0.46 0.46 99
20260506192604 16 111 0.0 1.6 0.15 0.46 0.46 99
20260506191604 16 120 1.6 3.2 0.20 0.43 0.43 100
20260506190605 16 166 0.0 3.2 0.20 0.43 0.43 100
20260506185606 16 165 0.0 1.6 0.20 0.38 0.38 100
20260506184605 16 252 1.6 1.6 0.30 0.36 0.36 100
20260506183605 16 261 0.0 3.2 0.33 0.33 0.33 99
20260506182606 16 246 0.0 1.6 0.28 0.28 0.28 99
20260506181606 17 252 0.0 1.6 0.25 0.25 0.25 97
20260506180607 17 267 1.6 3.2 0.23 0.23 0.23 95
20260506175606 18 325 1.6 3.2 0.18 0.18 0.18 88
20260506174606 21 161 3.2 9.7 0.03 0.03 0.03 71
20260506173606 21 118 3.2 11.3 0.00 0.00 0.00 62
20260506172647 22 151 3.2 9.7 0.00 0.00 0.00 61
20260506171607 22 13 4.8 14.5 0.00 0.00 0.00 61
20260506170608 22 134 4.8 9.7 0.00 0.00 0.00 62
20260506165608 21 109 3.2 11.3 0.00 0.00 0.00 63
20260506164608 21 167 3.2 8.0 0.00 0.00 0.00 64
20260506163607 21 121 4.8 12.9 0.00 0.00 0.00 65
20260506162607 21 110 4.8 9.7 0.00 0.00 0.00 66
20260506161628 21 149 3.2 11.3 0.00 0.00 0.00 66
20260506160608 20 84 3.2 11.3 0.00 0.00 0.00 66
20260506155608 20 97 4.8 12.9 0.00 0.00 0.00 67
20260506154608 20 107 4.8 12.9 0.00 0.00 0.00 67
20260506153608 20 153 3.2 8.0 0.00 0.00 0.00 67
20260506152609 21 113 4.8 12.9 0.00 0.00 0.00 67
20260506151609 21 141 4.8 9.7 0.00 0.00 0.00 67
20260506150629 20 136 4.8 11.3 0.00 0.00 0.00 69
20260506145609 20 123 4.8 12.9 0.00 0.00 0.00 69
20260506144609 20 116 4.8 11.3 0.00 0.00 0.00 70
20260506143609 20 119 4.8 12.9 0.00 0.00 0.00 71
20260506142610 19 97 3.2 9.7 0.00 0.00 0.00 72
20260506141610 19 156 4.8 14.5 0.00 0.00 0.00 74
20260506140629 18 141 3.2 8.0 0.00 0.00 0.00 75
20260506135610 18 112 4.8 14.5 0.00 0.00 0.00 76
20260506134610 18 146 4.8 11.3 0.00 0.00 0.00 77
20260506133610 18 125 3.2 11.3 0.00 0.00 0.00 77
20260506132630 18 127 3.2 9.7 0.00 0.00 0.00 77
20260506131610 17 131 3.2 11.3 0.00 0.00 0.00 77
20260506130611 18 149 4.8 12.9 0.00 0.00 0.00 77
20260506125611 18 179 6.4 16.1 0.00 0.00 0.00 76
20260506124611 17 241 4.8 9.7 0.00 0.00 0.00 77
20260506123611 17 131 3.2 9.7 0.00 0.00 0.00 78
20260506122611 17 338 4.8 9.7 0.00 0.00 0.00 79
20260506121611 17 142 4.8 11.3 0.00 0.00 0.00 78
20260506120611 16 115 3.2 9.7 0.00 0.00 0.00 80
20260506115612 16 106 4.8 9.7 0.00 0.00 0.00 81
20260506114613 16 90 4.8 17.7 0.00 0.00 0.00 81
20260506113632 16 100 4.8 9.7 0.00 0.00 0.00 82
20260506112612 16 22 1.6 4.8 0.00 0.00 0.00 82
20260506111612 16 88 3.2 12.9 0.00 0.00 0.00 82
20260506110512 15 106 3.2 6.4 0.00 0.00 0.00 82
20260506105515 15 112 3.2 9.7 0.00 0.00 0.00 83
20260506104514 15 160 4.8 6.4 0.00 0.00 0.00 83
20260506103535 15 85 3.2 8.0 0.00 0.00 0.00 83
20260506102616 15 254 3.2 4.8 0.00 0.00 0.00 82
20260506101615 15 127 3.2 6.4 0.00 0.00 0.00 82
20260506100515 15 97 3.2 8.0 0.00 0.00 0.00 82
20260506095515 15 129 1.6 3.2 0.00 0.00 0.00 82
20260506094515 15 277 1.6 4.8 0.00 0.00 0.00 82
20260506093515 15 79 1.6 4.8 0.00 0.00 0.00 82
20260506092515 15 131 1.6 4.8 0.00 0.00 0.00 82
20260506091516 15 85 1.6 4.8 0.00 0.00 0.00 81
20260506090516 15 120 1.6 4.8 0.00 0.00 0.00 81
20260506085517 16 283 1.6 8.0 0.00 0.00 0.00 80
20260506084516 16 149 3.2 6.4 0.00 0.00 0.00 79
20260506083517 16 241 1.6 4.8 0.00 0.00 0.00 79
20260506082517 16 98 3.2 6.4 0.00 0.00 0.00 78